Вернуться в каталог

STARLINK-36986

АктивенСвязьSSO
NORAD 68207·PAYLOAD·🇺🇸 United States

Запущен Mar 17, 2026 с Vandenberg Space Force Base

Loading…

Ближайшие Пролёты (ближайшие 24 часа)

TLE

СвежийSource: CelesTrak SupGP

Эпоха: Sep 14, 2026, 22:44 UTC

1 68207C 26053A   26257.94770833  .00049114  00000+0  15253-2 0  2575
2 68207  97.2847 131.7238 0001774  97.0056  35.2375 15.33400277    11

Отслеживайте STARLINK-36986 в реальном времени с AllMySat

Download on the App Store